FW5395 Weather Reports


time (UTC)temp
F
wind
direction
speed
knots
gust
knots
rain 1hr
in
rain 24hr
in
rain mn
in
humidity
%
barometer
mb
20260507145525 61 221 5.2 13.9 0.00 0.14 0.14 71 1012.7
20260507145004 62 226 7.0 22.6 0.00 0.14 0.14 70 1012.3
20260507144504 63 229 5.2 22.6 0.00 0.14 0.14 69 1011.9
20260507144004 63 221 6.1 17.4 0.00 0.14 0.14 70 1012.2
20260507143504 62 216 7.8 17.4 0.00 0.14 0.14 72 1012.3
20260507143004 62 204 5.2 12.2 0.00 0.14 0.14 73 1012.3
20260507142504 61 222 6.1 17.4 0.00 0.14 0.14 74 1012.4
20260507142004 61 230 7.0 17.4 0.00 0.14 0.14 75 1012.7
20260507141525 61 228 4.3 12.2 0.00 0.14 0.14 77 1012.6
20260507141004 61 238 5.2 12.2 0.00 0.14 0.14 75 1013.2
20260507140504 61 235 5.2 14.8 0.00 0.14 0.14 71 1013.5
20260507140004 61 229 5.2 19.1 0.00 0.14 0.14 71 1013.3
20260507135504 61 238 5.2 19.1 0.00 0.14 0.14 72 1014.6
20260507135004 61 237 8.7 19.1 0.00 0.14 0.14 72 1014.4
20260507134524 61 226 5.2 11.3 0.00 0.14 0.14 73 1012.9
20260507134004 62 218 6.1 14.8 0.00 0.14 0.14 72 1012.1
20260507133525 62 197 4.3 14.8 0.00 0.14 0.14 73 1011.0
20260507133004 62 193 5.2 13.9 0.00 0.14 0.14 73 1011.2
20260507132503 62 210 4.3 17.4 0.00 0.14 0.14 75 1010.8
20260507132004 62 203 6.1 17.4 0.00 0.14 0.14 76 1010.6
20260507131503 62 200 7.0 13.9 0.00 0.14 0.14 75 1010.6
20260507131003 62 218 6.1 9.6 0.00 0.14 0.14 73 1011.0
20260507130524 63 202 5.2 7.8 0.00 0.14 0.14 76 1011.3
20260507130004 63 198 4.3 12.2 0.00 0.14 0.14 79 1011.1
20260507125503 63 210 3.5 12.2 0.00 0.14 0.14 80 1011.3
20260507125004 64 195 3.5 8.7 0.00 0.14 0.14 82 1010.8
20260507124504 65 190 1.7 8.7 0.00 0.14 0.14 84 1010.7
20260507124004 65 196 2.6 8.7 0.00 0.14 0.14 86 1010.2
20260507123503 65 195 2.6 17.4 0.00 0.14 0.14 87 1010.3
20260507123003 65 200 3.5 17.4 0.00 0.14 0.14 87 1010.4
20260507122503 65 196 7.0 17.4 0.00 0.14 0.14 86 1010.2
20260507122004 65 179 2.6 12.2 0.00 0.14 0.14 90 1010.1
20260507121524 65 186 0.9 12.2 0.00 0.14 0.14 90 1010.2
20260507121003 65 193 7.0 11.3 0.00 0.14 0.14 89 1010.2
20260507120503 65 180 4.3 14.8 0.00 0.14 0.14 89 1010.5
20260507120004 65 186 1.7 16.5 0.00 0.14 0.14 90 1010.2
20260507115524 65 189 7.0 16.5 0.00 0.14 0.14 89 1009.9
20260507115003 65 188 7.8 12.2 0.00 0.14 0.14 89 1010.1
20260507114504 65 194 5.2 9.6 0.00 0.14 0.14 90 1010.0
20260507114003 65 188 2.6 9.6 0.00 0.14 0.14 90 1009.6
20260507113503 65 194 1.7 13.9 0.00 0.14 0.14 90 1009.5
20260507113004 65 188 4.3 19.1 0.00 0.14 0.14 90 1009.3
20260507112503 66 185 6.1 19.1 0.00 0.14 0.14 89 1009.3
20260507112003 65 181 3.5 16.5 0.00 0.14 0.14 90 1009.2
20260507111504 65 192 3.5 16.5 0.00 0.14 0.14 90 1009.1
20260507111005 66 189 4.3 24.3 0.00 0.14 0.14 90 1009.3
20260507110524 66 188 6.1 24.3 0.00 0.14 0.14 90 1008.7
20260507110004 65 198 3.5 19.1 0.00 0.14 0.14 91 1008.7
20260507105503 65 179 4.3 17.4 0.00 0.14 0.14 92 1008.9
20260507105003 65 169 6.1 26.1 0.00 0.14 0.14 92 1008.9
20260507104504 65 174 7.0 26.1 0.00 0.14 0.14 94 1008.7
20260507104003 65 177 3.5 16.5 0.00 0.14 0.14 94 1008.3
20260507103503 65 177 3.5 12.2 0.00 0.14 0.14 94 1008.2
20260507103003 65 187 4.3 12.2 0.00 0.14 0.14 94 1008.1
20260507102503 65 180 3.5 14.8 0.00 0.14 0.14 94 1008.0
20260507102003 64 188 4.3 14.8 0.00 0.14 0.14 94 1008.0
20260507101503 64 197 4.3 12.2 0.00 0.14 0.14 94 1007.7
20260507101024 65 179 3.5 8.7 0.00 0.14 0.14 94 1007.4
20260507100503 65 175 3.5 11.3 0.00 0.14 0.14 94 1007.8
20260507100004 65 196 4.3 11.3 0.00 0.14 0.14 94 1007.5
20260507095503 65 214 1.7 8.7 0.00 0.14 0.14 94 1007.2
20260507095003 65 192 2.6 8.7 0.00 0.14 0.14 94 1007.2
20260507094504 65 196 0.9 7.8 0.00 0.14 0.14 94 1007.2
20260507094025 65 188 3.5 11.3 0.01 0.14 0.14 94 1006.7
20260507093503 65 199 1.7 11.3 0.01 0.14 0.14 94 1006.3
20260507093004 65 209 0.9 9.6 0.01 0.14 0.14 94 1006.5
20260507092504 65 203 3.5 9.6 0.04 0.14 0.14 94 1006.0
20260507092004 65 215 3.5 9.6 0.06 0.14 0.14 94 1005.6
20260507091503 65 224 1.7 9.6 0.06 0.14 0.14 94 1005.3
20260507091003 65 211 1.7 8.7 0.06 0.14 0.14 94 1005.5
20260507090503 65 201 1.7 8.7 0.06 0.14 0.14 94 1005.7
20260507090005 65 188 0.9 7.0 0.06 0.14 0.14 94 1006.0
20260507085504 65 211 1.7 5.2 0.06 0.14 0.14 94 1006.6
20260507085004 65 218 1.7 4.3 0.06 0.14 0.14 94 1006.7
20260507084525 65 190 0.9 7.0 0.06 0.14 0.14 94 1006.8
20260507084004 65 186 1.7 7.0 0.05 0.13 0.13 94 1006.5
20260507083503 65 204 0.0 5.2 0.10 0.13 0.13 94 1005.8
20260507083004 65 195 0.9 12.2 0.12 0.13 0.13 94 1006.1
20260507082504 65 155 0.0 12.2 0.08 0.10 0.10 94 1006.4
20260507082025 65 141 3.5 7.8 0.06 0.07 0.07 94 1006.3
20260507081525 66 172 2.6 7.8 0.06 0.07 0.07 94 1006.4
20260507081004 66 165 0.0 5.2 0.07 0.07 0.07 94 1006.7
20260507080504 66 168 0.0 1.7 0.07 0.07 0.07 94 1006.2
20260507080025 66 198 0.0 2.6 0.07 0.07 0.07 94 1006.6
20260507075503 66 174 0.0 4.3 0.07 0.07 0.07 94 1006.5
20260507075004 66 177 0.9 4.3 0.07 0.07 0.07 94 1006.3
20260507074504 67 186 0.0 7.8 0.07 0.07 0.07 94 1006.9
20260507074004 67 183 4.3 7.8 0.07 0.07 0.07 94 1006.8
20260507073504 68 188 2.6 7.0 0.03 0.03 0.03 94 1006.5
20260507073004 69 169 1.7 9.6 0.01 0.01 0.01 90 1007.0
20260507072504 70 172 1.7 11.3 0.01 0.01 0.01 87 1006.6
20260507072025 70 189 4.3 11.3 0.01 0.01 0.01 88 1006.7
20260507071504 71 195 2.6 9.6 0.01 0.01 0.01 89 1006.9
20260507071004 72 179 2.6 8.7 0.00 0.00 0.00 86 1006.9
20260507070504 73 181 0.9 8.7 0.00 0.00 0.00 89 1006.4
20260507070025 74 205 1.7 7.0 0.00 0.00 0.00 91 1006.7
20260507065504 74 240 1.7 7.0 0.00 0.00 0.00 92 1006.5
20260507065025 73 232 0.9 7.0 0.00 0.00 0.00 93 1006.6
20260507064504 73 219 2.6 7.0 0.00 0.00 0.00 94 1006.7
20260507064004 73 0 0.0 0.0 0.00 0.00 0.00 94 1006.3
20260507063504 73 45 0.0 1.7 0.00 0.00 0.00 94 1006.1
20260507063004 72 33 0.0 4.3 0.00 0.00 0.00 94 1006.3
20260507062525 72 33 0.0 4.3 0.00 0.00 0.00 94 1006.1
20260507062025 72 0 0.0 0.0 0.00 0.00 0.00 94 1006.4
20260507061504 72 0 0.0 0.0 0.00 0.00 0.00 94 1006.0
20260507061025 72 0 0.0 0.0 0.00 0.00 0.00 94 1006.0
20260507060504 72 0 0.0 0.0 0.00 0.00 0.00 94 1006.2
20260507060004 72 0 0.0 0.0 0.00 0.00 0.00 94 1006.2
20260507055504 73 0 0.0 0.0 0.00 0.00 0.00 94 1006.3
20260507055004 73 0 0.0 0.0 0.00 0.00 0.00 94 1006.3
20260507054503 73 0 0.0 0.0 0.00 0.00 0.00 93 1006.5
20260507054004 73 358 0.0 4.3 0.00 0.00 0.00 93 1006.6
20260507053504 73 16 0.0 4.3 0.00 0.00 0.00 92 1006.5
20260507053025 74 15 0.0 4.3 0.00 0.00 0.00 92 1006.4
20260507052503 74 16 0.0 7.0 0.00 0.00 0.00 92 1006.5
20260507052004 74 23 3.5 7.0 0.00 0.00 0.00 91 1006.6
20260507051504 74 13 0.0 7.0 0.00 0.00 0.00 91 1006.7
20260507051004 74 16 2.6 7.0 0.00 0.00 0.00 91 1006.5
20260507050503 74 32 3.5 11.3 0.00 0.00 0.00 91 1006.6
20260507050004 74 16 6.1 11.3 0.00 0.00 0.00 90 1006.5
20260507045504 74 4 0.9 7.8 0.00 0.00 0.00 90 1006.6
20260507045004 74 4 4.3 7.8 0.00 0.00 0.00 90 1006.5
20260507044524 75 11 1.7 7.8 0.00 0.00 0.00 90 1006.6
20260507044003 75 26 1.7 7.8 0.00 0.00 0.00 89 1006.6
20260507043503 75 21 0.9 7.8 0.00 0.00 0.00 89 1006.6
20260507043004 75 12 0.9 7.8 0.00 0.00 0.00 89 1006.6
20260507042503 75 16 2.6 7.8 0.00 0.00 0.00 89 1006.8
20260507042024 75 13 2.6 7.8 0.00 0.00 0.00 89 1006.7
20260507041504 75 11 1.7 7.0 0.00 0.00 0.00 89 1006.6
20260507041004 75 23 0.9 5.2 0.00 0.00 0.00 89 1006.7
20260507040525 75 280 0.0 2.6 0.00 0.00 0.00 89 1006.8
20260507040004 75 290 0.0 2.6 0.00 0.00 0.00 89 1006.8
20260507035504 75 339 0.0 7.8 0.00 0.00 0.00 88 1006.9
20260507035003 75 6 1.7 7.8 0.00 0.00 0.00 88 1006.8
20260507034503 75 14 2.6 7.8 0.00 0.00 0.00 88 1006.8
20260507034004 75 7 3.5 9.6 0.00 0.00 0.00 88 1006.9
20260507033503 75 12 3.5 9.6 0.00 0.00 0.00 88 1006.9
20260507033003 75 4 2.6 7.8 0.00 0.00 0.00 88 1007.1
20260507032504 75 3 3.5 7.8 0.00 0.00 0.00 88 1007.1
20260507032004 75 16 2.6 5.2 0.00 0.00 0.00 89 1007.3
20260507031503 75 25 2.6 4.3 0.00 0.00 0.00 89 1007.2
20260507031003 74 42 0.9 1.7 0.00 0.00 0.00 90 1007.3
20260507030504 74 0 0.0 0.0 0.00 0.00 0.00 90 1007.2
20260507030025 74 0 0.0 0.0 0.00 0.00 0.00 90 1007.3
20260507025504 75 0 0.0 0.0 0.00 0.00 0.00 90 1007.5
20260507025004 75 0 0.0 0.0 0.00 0.00 0.00 90 1007.5
20260507024504 75 0 0.0 0.0 0.00 0.00 0.00 90 1007.5
20260507024004 75 0 0.0 0.0 0.00 0.00 0.00 89 1007.4
20260507023504 75 0 0.0 0.0 0.00 0.00 0.00 89 1007.4
20260507023004 75 0 0.0 0.0 0.00 0.00 0.00 89 1007.4
20260507022504 75 0 0.0 0.0 0.00 0.00 0.00 88 1007.6
20260507022004 76 0 0.0 0.0 0.00 0.00 0.00 88 1007.5
20260507021504 76 0 0.0 0.0 0.00 0.00 0.00 87 1007.7
20260507021025 76 0 0.0 0.0 0.00 0.00 0.00 87 1007.6
20260507020504 76 0 0.0 0.0 0.00 0.00 0.00 87 1007.6
20260507020004 76 354 0.0 4.3 0.00 0.00 0.00 87 1007.4
20260507015504 76 3 0.0 4.3 0.00 0.00 0.00 87 1007.4
20260507015004 76 356 0.9 4.3 0.00 0.00 0.00 87 1007.3
20260507014504 76 11 0.9 4.3 0.00 0.00 0.00 87 1007.4
20260507014004 75 26 0.9 5.2 0.00 0.00 0.00 88 1007.0
20260507013504 75 12 1.7 5.2 0.00 0.00 0.00 87 1007.1
20260507013004 75 33 0.9 7.0 0.00 0.00 0.00 88 1006.7
20260507012504 75 30 1.7 7.8 0.00 0.00 0.00 87 1006.8
20260507012004 76 26 0.9 7.8 0.00 0.00 0.00 87 1006.8
20260507011504 76 33 3.5 7.8 0.00 0.00 0.00 87 1006.8
20260507011004 76 30 2.6 9.6 0.00 0.00 0.00 87 1006.8
20260507010504 76 37 2.6 9.6 0.00 0.00 0.00 87 1006.8
20260507010004 76 42 2.6 7.8 0.00 0.00 0.00 86 1006.7
20260507005503 76 38 2.6 8.7 0.00 0.00 0.00 86 1006.8
20260507005004 76 20 3.5 8.7 0.00 0.00 0.00 86 1006.8
20260507004504 76 13 4.3 7.0 0.00 0.00 0.00 86 1006.6
20260507004004 76 13 3.5 7.8 0.00 0.00 0.00 86 1006.7
20260507003504 77 8 3.5 7.8 0.00 0.00 0.00 85 1006.9
20260507003004 77 15 2.6 8.7 0.00 0.00 0.00 84 1006.8
20260507002503 77 40 1.7 8.7 0.00 0.00 0.00 84 1006.8
20260507002004 77 32 3.5 8.7 0.00 0.00 0.00 83 1006.8
20260507001525 77 17 4.3 8.7 0.00 0.00 0.00 83 1006.8
20260507001004 78 16 2.6 9.6 0.00 0.00 0.00 82 1006.9
20260507000504 78 22 3.5 9.6 0.00 0.00 0.00 82 1007.0
20260507000004 78 21 2.6 8.7 0.00 0.00 0.00 81 1007.2
20260506235503 78 22 3.5 7.0 0.00 0.00 0.00 81 1007.1
20260506235024 78 22 4.3 7.0 0.00 0.00 0.00 81 1007.1
20260506234504 78 23 2.6 7.0 0.00 0.00 0.00 80 1007.1
20260506234003 79 17 2.6 7.8 0.00 0.00 0.00 80 1007.1
20260506233524 79 22 3.5 9.6 0.00 0.00 0.00 79 1007.0
20260506233025 79 26 2.6 9.6 0.00 0.00 0.00 78 1007.0
20260506232503 79 15 3.5 9.6 0.00 0.00 0.00 78 1006.7
20260506232024 79 5 3.5 9.6 0.00 0.00 0.00 77 1006.5
20260506231503 80 2 4.3 11.3 0.00 0.00 0.00 77 1006.6
20260506231024 80 12 7.8 11.3 0.00 0.00 0.00 77 1006.6
20260506230524 79 31 3.5 12.2 0.00 0.00 0.00 77 1006.5
20260506230003 80 20 6.1 13.9 0.00 0.00 0.00 77 1006.5
20260506225503 80 9 6.1 13.9 0.00 0.00 0.00 77 1006.8
20260506225003 80 34 3.5 8.7 0.00 0.00 0.00 76 1006.7
20260506224503 80 68 3.5 11.3 0.00 0.00 0.00 76 1006.8
20260506224003 80 24 4.3 12.2 0.00 0.00 0.00 75 1006.9
20260506223503 81 13 5.2 12.2 0.00 0.00 0.00 75 1007.1
20260506223003 81 8 5.2 9.6 0.00 0.00 0.00 75 1007.1
20260506222503 81 358 4.3 11.3 0.00 0.00 0.00 75 1007.3
20260506222003 81 8 4.3 11.3 0.00 0.00 0.00 75 1007.3
20260506221524 80 25 2.6 11.3 0.00 0.00 0.00 76 1007.1
20260506221003 80 22 4.3 8.7 0.00 0.00 0.00 76 1007.0
20260506220524 81 8 3.5 8.7 0.00 0.00 0.00 76 1007.0
20260506220005 81 3 3.5 7.8 0.00 0.00 0.00 76 1007.1
20260506215504 82 360 3.5 7.8 0.00 0.00 0.00 75 1007.4
20260506215006 82 12 3.5 7.8 0.00 0.00 0.00 75 1007.5
20260506214526 82 35 4.3 8.7 0.00 0.00 0.00 75 1007.4
20260506214004 82 23 2.6 8.7 0.00 0.00 0.00 75 1007.4
20260506213505 82 4 1.7 7.0 0.00 0.00 0.00 76 1007.3
20260506213025 82 355 3.5 7.0 0.00 0.00 0.00 76 1007.3
20260506212505 82 359 2.6 7.8 0.00 0.00 0.00 76 1007.4
20260506212025 82 354 4.3 7.8 0.00 0.00 0.00 76 1007.1
20260506211505 82 14 4.3 8.7 0.00 0.00 0.00 76 1006.9
20260506211005 82 38 3.5 8.7 0.00 0.00 0.00 76 1006.8
20260506210505 83 30 5.2 8.7 0.00 0.00 0.00 75 1006.9
20260506210004 83 21 3.5 12.2 0.00 0.00 0.00 74 1006.8
20260506205504 84 16 4.3 12.2 0.00 0.00 0.00 72 1007.0
20260506205004 85 6 2.6 7.8 0.00 0.00 0.00 71 1006.9
20260506204504 85 13 3.5 7.8 0.00 0.00 0.00 70 1007.2
20260506204005 86 21 2.6 7.8 0.00 0.00 0.00 69 1007.4
20260506203504 86 26 3.5 7.8 0.00 0.00 0.00 68 1007.3
20260506203005 86 8 2.6 13.9 0.00 0.00 0.00 67 1007.3
20260506202505 87 358 2.6 13.9 0.00 0.00 0.00 66 1007.3
20260506202026 86 10 4.3 9.6 0.00 0.00 0.00 67 1007.3
20260506201504 86 15 2.6 7.8 0.00 0.00 0.00 70 1007.4
20260506201025 86 21 1.7 7.0 0.00 0.00 0.00 70 1007.4
20260506200504 86 11 1.7 7.0 0.00 0.00 0.00 71 1007.4
20260506200004 86 22 2.6 7.0 0.00 0.00 0.00 72 1007.5
20260506195504 87 25 2.6 7.8 0.00 0.00 0.00 71 1007.5
20260506195004 87 26 2.6 7.8 0.00 0.00 0.00 70 1007.5
20260506194504 87 22 3.5 7.8 0.00 0.00 0.00 71 1007.5
20260506194004 87 23 3.5 7.8 0.00 0.00 0.00 70 1007.5
20260506193525 87 20 3.5 7.0 0.00 0.00 0.00 70 1007.4
20260506193026 88 359 2.6 7.0 0.00 0.00 0.00 69 1007.5
20260506192504 88 19 3.5 7.8 0.00 0.00 0.00 69 1007.5
20260506192004 87 33 3.5 7.8 0.00 0.00 0.00 69 1007.5
20260506191504 87 42 4.3 8.7 0.00 0.00 0.00 68 1007.4
20260506191004 87 28 3.5 9.6 0.00 0.00 0.00 68 1007.5
20260506190525 87 7 3.5 9.6 0.00 0.00 0.00 68 1007.7
20260506190005 86 6 3.5 8.7 0.00 0.00 0.00 69 1007.8
20260506185504 86 23 2.6 7.8 0.00 0.00 0.00 69 1007.9
20260506185025 86 37 3.5 8.7 0.00 0.00 0.00 69 1007.9
20260506184504 86 12 5.2 13.9 0.00 0.00 0.00 69 1007.8
20260506184025 86 357 3.5 13.9 0.00 0.00 0.00 68 1008.0
20260506183525 86 14 7.0 11.3 0.00 0.00 0.00 69 1008.1
20260506183005 86 12 4.3 13.9 0.00 0.00 0.00 67 1008.1
20260506182504 87 5 7.0 13.9 0.00 0.00 0.00 66 1008.2
20260506182025 87 30 4.3 11.3 0.00 0.00 0.00 66 1008.1
20260506181525 88 29 5.2 12.2 0.00 0.00 0.00 65 1008.1
20260506181004 88 25 6.1 12.2 0.00 0.00 0.00 64 1008.3
20260506180504 88 18 7.8 12.2 0.00 0.00 0.00 65 1008.4
20260506180025 88 17 7.8 11.3 0.00 0.00 0.00 66 1008.3
20260506175504 89 6 2.6 13.9 0.00 0.00 0.00 67 1008.4
20260506175004 88 1 0.9 13.9 0.00 0.00 0.00 70 1008.4
20260506174504 87 355 5.2 11.3 0.00 0.00 0.00 69 1008.5
20260506174004 87 18 7.0 9.6 0.00 0.00 0.00 69 1008.8
20260506173504 87 37 5.2 11.3 0.00 0.00 0.00 69 1008.8
20260506173004 87 23 3.5 14.8 0.00 0.00 0.00 69 1009.0
20260506172504 86 11 6.1 14.8 0.00 0.00 0.00 70 1008.9
20260506172004 87 8 5.2 13.9 0.00 0.00 0.00 70 1009.2
20260506171504 87 36 6.1 13.9 0.00 0.00 0.00 69 1009.4
20260506171004 86 22 6.1 12.2 0.00 0.00 0.00 70 1009.4
20260506170504 86 347 3.5 13.9 0.00 0.00 0.00 71 1009.7
20260506170004 86 10 5.2 13.9 0.00 0.00 0.00 71 1009.5
20260506165504 85 36 6.1 9.6 0.00 0.00 0.00 71 1009.8
20260506165004 86 33 5.2 11.3 0.00 0.00 0.00 71 1010.0
20260506164504 85 26 5.2 12.2 0.00 0.00 0.00 72 1009.8
20260506164004 85 20 6.1 12.2 0.00 0.00 0.00 72 1009.9
20260506163504 85 13 4.3 12.2 0.00 0.00 0.00 74 1010.0
20260506163025 84 16 7.0 14.8 0.00 0.00 0.00 73 1010.2
20260506162504 84 28 7.0 14.8 0.00 0.00 0.00 73 1010.4
20260506162004 85 16 6.1 13.9 0.00 0.00 0.00 71 1010.1
20260506161504 85 8 5.2 13.9 0.00 0.00 0.00 72 1010.4
20260506161025 85 12 6.1 11.3 0.00 0.00 0.00 72 1010.5
20260506160504 85 7 7.8 12.2 0.00 0.00 0.00 73 1010.5
20260506160004 84 11 5.2 13.9 0.00 0.00 0.00 73 1010.6
20260506155504 85 8 4.3 13.9 0.00 0.00 0.00 73 1010.6
20260506155004 84 5 5.2 13.9 0.00 0.00 0.00 73 1011.0
20260506154504 85 18 5.2 13.9 0.00 0.00 0.00 73 1011.1
20260506154004 85 22 5.2 13.9 0.00 0.00 0.00 72 1011.0
20260506153503 84 20 7.8 13.9 0.00 0.00 0.00 73 1011.2
20260506153004 84 13 5.2 13.9 0.00 0.00 0.00 73 1011.4
20260506152504 84 13 5.2 13.9 0.00 0.00 0.00 74 1011.5
20260506152004 83 26 4.3 16.5 0.00 0.00 0.00 74 1011.5
20260506151504 83 16 7.8 16.5 0.00 0.00 0.00 74 1011.7
20260506151004 84 2 5.2 12.2 0.00 0.00 0.00 75 1011.9
20260506150504 84 6 5.2 11.3 0.00 0.00 0.00 74 1012.0
20260506150004 84 358 3.5 8.7 0.00 0.00 0.00 75 1012.1